Regional Weather Roundup
Issued by NWS

Home | Current Version | Previous Version | Text Only | Print | Product List | Glossary Off
Versions: 1 2 3 4 5 6 7 8 9 10 11 12 13 14 15 16 17 18 19 20 21 22 23 24 25 26 27 28

000
ASUS45 KSLC 271610
RWRUT

UTAH REGIONAL WEATHER ROUNDUP
NATIONAL WEATHER SERVICE SALT LAKE CITY UT
1000 AM MDT TUE JUN 27 2017

UTZ001>011-023>025-271700-

NORTHERN UTAH

CITY           SKY/WX    TMP DP  RH WIND       PRES   REMARKS
BRIGHAM CITY   SUNNY     79  47  32 NW12      29.94R
HILL AFB       MOSUNNY   79  45  29 S12       29.97R
LOGAN          SUNNY     76  49  38 W7        29.94S
OGDEN          SUNNY     82  44  26 S6        29.94R
SALT LAKE CITY MOSUNNY   82  48  30 S9        29.93S
TOOELE VALLEY  SUNNY     81  50  34 NW6       29.96S
WENDOVER         N/A     83  29  14 NW20      29.97F
HEBER CITY     SUNNY     75  37  25 CALM      30.02S
WEST JORDAN    SUNNY     78  56  47 CALM      29.98S

$$

UTZ011>015-024>027-271700-

CENTRAL/NORTHEAST UTAH

CITY           SKY/WX    TMP DP  RH WIND       PRES   REMARKS
PROVO AIRPORT  SUNNY     78  32  18 CALM      29.97S
MOAB/CANYONLAN SUNNY     91  13   5 W13G21    29.93R
DELTA          SUNNY     81  27  13 CALM      30.00S
PRICE          SUNNY     78  21  12 E8        30.03S
VERNAL         SUNNY     73  41  31 SE5       29.98F

$$

UTZ013>016-019>022-027-271700-

SOUTHERN UTAH

CITY           SKY/WX    TMP DP  RH WIND       PRES   REMARKS
BRYCE CANYON   SUNNY     73  19  13 SE7       30.22F
CEDAR CITY     SUNNY     83  17   8 SW16      30.05F
MILFORD        SUNNY     82  18   9 S16G24    30.01S
ST GEORGE      SUNNY     84  24  11 CALM      29.91S
HANKSVILLE     SUNNY     84  21  10 S3        29.96F
BLANDING       SUNNY     78  37  22 S9        30.20F

$$

REGIONAL REPORTS     COLORADO/ARIZONA

CITY           SKY/WX    TMP DP  RH WIND       PRES   REMARKS
CRAIG, CO      SUNNY     77  36  22 CALM      30.04F
GRAND JUNCTION SUNNY     86  34  15 SE12      29.96F
RIFLE, CO      SUNNY     74  30  19 VRB3      30.03F
MONTROSE, CO   SUNNY     85  29  13 SW10      30.07F
CORTEZ, CO     SUNNY     81  38  21 S13       30.14F
COLORADO CITY    N/A     86  27  11 SW6       30.07F
PAGE, AZ       SUNNY     86  27  11 N6        29.98F
GRAND CANYON   SUNNY     78  21  12 SW13G23   30.20F
KINGMAN, AZ    SUNNY     87  24  10 SW15G23   29.97S
FLAGSTAFF, AZ  SUNNY     75  23  14 SW18G26   30.24F

$$

REGIONAL REPORTS    NEVADA/IDAHO/WYOMING

CITY           SKY/WX    TMP DP  RH WIND       PRES   REMARKS
LAS VEGAS, NV  SUNNY     92  17   6 W5        29.85R
ELY, NY        SUNNY     75  24  15 N8        30.13F
ELKO, NV       SUNNY     73  36  25 SW12      30.08S
POCATELLO, ID  MOSUNNY   71  50  47 SW16      29.99S
BURLEY, ID     SUNNY     71  50  47 W14G22    29.96
FORT BRIDGER,    N/A     69  41  35 NW9G24    30.15F
EVANSTON, WY   CLOUDY    65  42  43 E3        30.13F
ROCK SPRINGS,  SUNNY     71  38  29 NW18G30   30.08R
KEMMERER, WY     N/A     59  43  55 W6        30.11F

$$




USA.gov is the U.S. government's official web portal to all federal, state and local government web resources and services.